SCP
0 0 0 0 0 0 0 0 0 0 0 0 0 0 0 0 0 0 0 0 0 0 0 0 0 0 0 0 0 0 0 0 0 0 0 -0 -0 -0 0 0 -0 0 0 0
0 0 0 0 0 0 0 0 0 0 0 0 0 0 0 0 0 0 0 0 0 0 0 0 0 0 0 0 0 0 0 0 0 0 -0 -0 -0 -0 -0 -0 0 0 0 0
0 0 0 0 0 0 0 0 0 0 0 0 0 0 0 0 0 0 0 0 0 0 0 0 0 0 0 0 0 0 0 0 0 0 -0 -0 -0 -0 -0 0 0 0 0 0
0 0 0 0 0 0 0 0 0 0 0 0 0 0 0 0 0 0 0 0 0 0 0 0 0 0 0 0 0 0 0 0 0 0 -0 0 -0 -0 -0 -0 0 0 0 0
0 0 0 0 0 0 0 0 0 0 0 0 0 0 0 0 0 0 0 0 0 0 0 0 0 0 0 0 0 0 0 0 0 0 0 0 0 0 -0 -0 0 0 0 0
0 0 0 0 0 0 0 0 0 0 0 0 0 0 0 0 0 0 0 0 0 0 0 0 0 0 0 0 0 0 0 0 0 0 0 0 0 0 -0 -0 0 0 0 0
0 0 0 0 0 0 0 0 0 0 0 0 0 0 0 0 0 0 0 0 0 0 0 0 0 0 0 0 0 0 0 0 0 0 0 0 0 0 0 -0 0 0 0 0
0 0 0 0 0 0 0 0 0 0 0 0 0 0 0 0 0 0 0 0 0 0 0 0 0 0 0 0 0 0 0 0 0 0 0 0 0 0 0 -0 -0 0 0 0
0 0 0 0 0 0 0 0 0 0 0 0 0 0 0 0 0 0 0 0 0 0 0 0 0 0 0 0 0 0 0 0 0 0 0 0 0 0 0 0 0 -0 0 0
0 0 0 0 0 0 0 0 0 0 0 0 0 0 0 0 0 0 0 0 0 0 0 0 0 0 0 0 0 0 0 0 0 0 0 0 0 0 0 0 0 0 -0 0
0 0 0 0 0 0 0 0 0 0 0 0 0 0 0 0 0 0 0 0 0 0 0 0 0 0 0 0 0 0 0 0 0 0 0 0 0 0 0 -0 0 0 -0 0
0 0 0 0 0 0 0 0 0 0 0 0 0 0 0 0 0 0 0 0 0 0 0 0 0 0 0 0 0 0 0 0 0 0 0 0 0 0 0 -0 0 0 -0 0
0 0 0 0 0 0 0 0 0 0 0 0 0 0 0 0 0 0 0 0 0 0 0 0 0 0 0 0 0 0 0 0 0 0 0 0 0 0 0 0 -0 0 0 0
0 0 0 0 0 0 0 0 0 0 0 0 0 0 0 0 0 0 0 0 0 0 0 0 0 0 0 0 0 0 0 0 0 0 0 -0 0 0 0 0 0 0 0 0
0 0 0 0 0 0 0 0 0 0 0 0 0 0 0 0 0 0 0 0 0 0 0 0 0 0 0 0 0 0 0 0 0 0 0 0 -0 -0 0 0 0 0 0 0
0 0 0 0 0 0 0 0 0 0 0 0 0 0 0 0 0 0 0 0 0 0 0 0 0 0 0 0 0 0 0 0 0 0 0 0 0 0 0 0 0 0 0 0
0 0 0 0 0 0 0 0 0 0 0 0 0 0 0 0 0 0 0 0 0 0 0 0 0 0 0 0 0 0 0 0 0 0 0 0 0 0 0 0 0 0 0 0
0 0 0 0 0 0 0 0 0 0 0 0 0 0 0 0 0 0 0 0 0 0 0 0 0 0 0 0 0 0 0 0 0 0 0 0 0 0 0 0 0 0 0 0
0 0 0 0 0 0 0 0 0 0 0 0 0 0 0 0 0 0 0 0 0 0 0 0 0 0 0 0 0 0 0 0 0 0 0 0 0 0 0 0 0 0 0 0
0 0 0 0 0 0 0 0 0 0 0 0 0 0 0 0 0 0 0 0 0 0 0 0 0 0 0 0 0 0 0 0 0 0 0 0 0 -0 0 0 0 0 0 0
0 0 0 0 0 0 0 0 0 0 0 0 0 0 0 0 0 0 0 0 0 0 0 0 0 0 0 0 0 0 0 0 0 0 0 0 0 0 -0 0 0 0 0 0
0 0 0 0 0 0 0 0 0 0 0 0 0 0 0 0 0 0 0 0 0 0 0 0 0 0 0 0 0 0 0 0 0 0 0 0 0 0 0 -0 0 0 0 0
0 0 0 0 0 0 0 0 0 0 0 0 0 0 0 0 0 0 0 0 0 0 0 0 0 0 0 0 0 0 0 0 0 0 0 0 0 0 0 0 0 0 0 0
0 0 0 0 0 0 0 0 0 0 0 0 0 0 0 0 0 0 0 0 -0 0 0 0 0 0 0 0 0 0 0 0 0 0 0 0 0 0 0 0 0 0 0 0
0 0 0 0 0 0 0 0 0 0 0 0 0 0 0 0 0 0 0 0 0 0 0 0 0 0 0 0 0 0 0 0 0 0 0 0 0 0 0 0 0 0 0 0
0 0 0 0 0 0 0 0 0 0 0 0 0 0 0 0 0 0 0 0 0 0 0 0 0 0 0 0 0 0 0 0 0 0 0 0 0 0 0 0 0 0 0 0
0 0 0 0 0 0 0 0 0 0 0 0 0 0 0 0 0 0 0 0 0 0 0 0 0 0 0 0 0 0 0 0 0 0 0 0 0 0 0 0 0 0 0 0
Wind_Speed_500mb
14 22 3 13 12 8 11 7 6 9 17 16 16 12 29 17 8 6 17 22 28 24 23 24 27 29 32 34 36 45 48 44 42 47 45 51 59 47 34 26 23 25 39 47
13 25 19 9 11 6 9 14 8 23 16 14 25 28 20 12 8 15 19 23 22 28 29 32 28 27 29 32 38 38 42 44 35 46 47 55 53 46 40 20 21 24 21 27
9 14 16 8 9 27 6 14 9 5 13 22 13 16 10 1 14 15 20 22 25 29 36 32 25 23 27 32 41 46 40 35 37 44 55 57 48 39 32 13 19 20 20 19
9 10 8 5 6 15 16 24 12 13 16 24 22 12 8 21 21 24 22 23 27 29 32 30 29 34 37 47 45 45 39 34 41 49 50 51 42 35 27 31 17 19 21 19
5 4 11 14 10 12 15 8 19 15 17 28 21 28 28 25 23 22 20 22 26 29 26 30 35 39 48 47 39 39 45 43 41 41 42 50 41 38 29 31 20 19 23 25
5 3 3 7 5 20 19 4 18 24 21 23 16 9 2 16 18 20 21 22 24 25 28 29 37 43 37 36 39 44 45 44 42 38 40 41 45 37 31 24 18 19 17 22
2 1 10 10 28 10 2 7 16 15 16 20 12 12 20 18 22 19 19 21 27 22 20 26 35 40 38 38 48 39 41 41 43 36 36 38 38 37 35 23 17 22 14 16
4 12 3 9 10 3 8 6 8 12 25 24 18 22 21 23 21 20 21 27 23 19 26 36 40 43 43 42 40 45 38 38 36 34 38 35 35 35 36 25 16 18 13 22
12 6 22 22 25 13 7 10 14 19 12 10 14 16 19 19 17 15 18 19 21 25 34 39 42 41 51 34 36 44 42 40 40 37 40 35 32 37 27 21 25 18 13 1
6 7 24 27 19 15 11 16 14 6 14 13 14 12 13 13 11 14 16 17 22 31 35 41 36 41 52 41 40 40 40 37 35 39 37 28 22 32 20 26 20 20 11 10
8 9 8 24 15 17 12 4 5 24 20 18 15 15 14 12 13 14 19 15 22 28 36 40 38 42 44 42 46 44 41 35 34 39 40 36 23 27 19 17 16 18 21 14
2 19 12 12 9 11 10 21 14 13 17 16 14 13 14 13 15 19 19 12 22 30 37 43 36 35 37 42 42 38 42 41 28 34 43 29 31 29 14 12 20 11 25 12
16 23 23 16 19 20 17 15 15 12 15 15 12 10 11 15 18 19 13 21 28 28 38 38 35 34 41 40 40 29 37 41 25 32 34 30 29 27 23 9 14 20 18 28
15 12 11 8 15 10 12 11 14 13 16 7 7 13 18 20 20 15 24 25 26 31 29 33 36 38 42 40 33 26 37 33 35 19 28 28 22 18 22 20 11 21 18 16
10 8 7 5 3 8 4 8 12 16 6 5 10 14 20 18 21 26 26 29 25 29 29 40 37 36 37 34 27 29 31 29 28 28 25 23 28 21 16 6 13 15 27 9
6 7 4 4 7 11 4 6 14 4 12 20 28 24 21 25 26 25 28 29 24 30 39 40 37 31 32 27 28 30 17 25 24 28 22 20 33 18 21 9 9 7 10 19
20 23 20 17 17 12 11 12 6 10 16 24 26 25 27 25 24 25 26 29 34 35 36 35 36 33 35 20 21 23 20 22 26 18 20 26 25 21 17 17 13 10 14 14
11 7 8 10 11 14 16 12 10 17 23 25 25 30 29 26 31 31 33 30 29 36 37 40 34 32 30 25 27 29 17 17 22 19 22 26 28 15 14 13 16 18 18 16
12 12 13 15 16 18 20 19 18 19 23 28 25 27 33 33 34 33 33 34 40 43 37 39 42 35 32 28 24 27 13 19 29 20 14 21 22 18 16 15 15 15 14 18
22 19 18 22 21 20 23 28 22 26 23 24 30 31 33 35 36 41 36 40 42 43 30 36 39 36 33 32 24 27 19 24 24 16 17 19 22 23 22 18 16 21 25 16
38 37 34 30 26 17 25 28 37 32 30 32 30 34 40 40 40 39 48 45 44 43 35 38 39 36 36 34 33 35 23 27 23 18 20 18 21 22 28 20 17 20 24 27
28 22 19 24 28 30 28 28 31 37 32 30 33 36 39 43 43 51 53 44 41 40 35 39 42 33 35 39 39 40 34 30 27 22 19 22 23 28 27 32 25 20 21 26
23 30 34 39 37 36 27 31 46 24 33 37 46 42 42 46 49 47 57 55 53 53 48 45 46 45 42 38 34 34 35 29 31 35 33 31 26 25 26 18 19 25 25 25
37 38 43 42 36 21 42 40 33 29 37 41 51 50 53 54 59 55 63 60 55 57 56 53 51 53 47 50 46 43 43 37 33 32 38 40 38 35 34 30 26 24 26 27
25 34 24 23 27 30 25 22 25 39 39 38 33 36 35 35 44 54 56 56 50 52 63 61 60 55 54 58 65 59 54 45 29 29 34 44 38 39 45 45 38 36 30 21
30 23 17 24 29 20 28 24 36 38 47 48 50 52 36 43 50 50 52 57 51 60 60 66 72 63 66 65 65 75 64 55 49 41 41 50 49 45 47 45 42 43 40 37
25 27 28 29 27 32 32 30 31 32 42 53 53 46 47 50 48 46 54 51 55 41 43 52 58 61 53 62 76 68 74 70 62 64 60 59 57 54 48 50 52 51 48 46
Wind_Direction_500mb
324 324 6 318 306 40 65 353 93 94 131 167 176 173 126 127 102 51 46 17 354 349 5 348 337 334 331 330 327 331 336 339 334 335 325 338 338 339 315 286 280 277 241 237
310 291 264 232 291 223 171 224 151 116 112 144 108 83 87 93 68 64 34 355 24 32 21 9 350 346 346 339 334 331 326 327 331 344 340 343 344 336 331 267 266 280 252 244
282 334 329 291 349 13 109 66 80 109 163 115 92 90 75 156 99 53 41 44 26 15 9 5 359 347 347 338 332 338 339 348 343 336 338 335 341 342 342 328 302 271 255 246
257 347 285 201 339 35 353 21 3 96 106 117 115 101 100 91 69 68 46 25 11 359 354 342 340 342 341 341 342 338 336 349 350 340 340 342 338 339 342 324 312 288 261 249
41 320 285 123 19 115 225 3 11 76 76 96 94 98 59 45 69 56 37 16 3 355 342 333 340 345 339 344 337 341 347 341 339 340 339 344 340 348 337 334 306 294 236 243
348 298 301 331 258 240 324 192 45 51 56 85 67 82 307 54 41 33 23 10 5 356 339 333 339 341 347 344 338 339 341 344 346 332 336 344 343 343 340 334 322 308 265 227
117 201 273 246 250 330 29 236 53 50 82 78 85 97 83 59 50 37 26 10 1 344 352 2 351 347 352 348 345 349 342 338 342 343 348 344 344 352 353 347 324 341 233 266
73 243 161 0 50 322 166 101 58 75 88 71 56 62 48 34 23 13 10 2 3 344 357 349 352 346 344 342 346 345 350 346 340 353 353 349 341 347 1 18 8 328 327 244
201 208 101 88 114 114 114 97 96 87 63 80 79 46 27 23 9 8 10 11 352 348 348 354 348 345 346 352 351 353 354 1 357 356 355 343 338 343 342 357 12 12 358 262
71 162 126 130 131 127 83 107 95 54 118 72 58 35 25 7 358 2 14 359 347 349 358 358 343 339 350 356 344 338 341 346 355 354 346 359 353 349 332 350 2 5 350 349
127 85 163 148 142 144 142 128 46 89 76 61 44 33 14 4 352 349 349 344 336 343 351 353 349 338 343 346 345 346 343 344 343 357 354 351 347 359 354 337 337 1 8 358
32 17 77 87 111 120 85 94 77 62 46 31 14 5 349 329 331 333 351 323 332 334 342 343 347 337 343 346 340 340 350 351 350 354 351 355 1 5 357 358 356 17 25 29
51 58 57 78 83 65 73 70 63 29 351 334 347 323 333 314 322 324 338 320 322 322 326 340 347 338 341 345 343 345 344 350 350 350 351 3 350 4 18 46 16 33 35 35
46 39 55 67 101 87 73 46 9 351 320 271 328 311 322 311 311 299 318 319 324 313 324 346 339 337 332 333 334 333 347 351 359 357 4 0 345 360 15 16 353 24 355 13
46 32 9 89 146 176 160 330 296 299 351 351 321 315 318 310 313 314 316 319 318 319 325 327 324 327 330 328 323 332 347 355 10 9 359 352 351 311 318 328 18 13 25 24
331 267 302 226 269 221 220 308 287 41 352 328 312 308 292 304 310 312 311 310 312 313 317 314 317 324 319 324 324 342 345 338 353 347 349 349 342 353 346 343 299 317 18 2
358 353 346 346 350 333 267 295 145 350 335 322 309 291 307 318 313 312 311 309 310 311 318 312 301 322 319 347 356 356 346 337 345 352 348 356 1 358 353 351 345 354 317 305
282 304 2 340 315 303 305 306 297 305 304 310 299 300 306 301 308 318 316 312 308 312 313 307 306 325 340 334 329 334 332 334 327 343 333 347 0 357 350 348 331 322 318 321
289 280 282 278 283 274 273 268 284 296 303 310 303 297 300 303 303 310 312 309 307 308 304 305 309 319 327 323 323 333 325 302 314 313 306 316 325 355 354 353 345 336 314 320
349 326 319 298 291 281 291 285 268 283 286 298 305 301 297 304 301 305 309 298 305 309 302 296 302 312 318 296 300 340 337 333 325 326 317 292 296 302 309 333 324 320 326 332
346 337 343 349 346 344 310 292 284 293 287 294 296 298 295 299 300 294 310 297 299 299 296 296 298 309 300 289 296 312 298 300 325 325 312 302 279 290 292 316 316 326 310 311
327 329 330 333 340 330 327 320 306 303 281 288 298 302 298 296 296 301 311 301 299 297 289 285 295 292 289 297 300 303 308 272 293 302 295 294 302 307 298 282 282 302 298 304
344 335 331 321 324 307 319 315 321 308 311 302 303 299 302 296 294 293 308 302 301 291 283 285 286 289 295 301 301 295 295 280 272 279 282 274 288 279 283 286 272 285 280 275
328 327 326 324 306 300 337 345 317 295 282 307 294 297 289 294 296 293 291 308 285 286 287 289 281 280 290 300 297 289 285 292 260 259 273 273 268 266 275 288 277 279 295 272
338 333 338 331 320 329 339 347 340 332 314 310 323 309 297 298 315 315 308 301 301 279 287 281 294 290 287 291 290 284 279 278 273 256 264 269 259 265 264 281 278 277 287 280
319 289 322 349 341 349 344 336 343 348 340 332 324 316 292 311 300 309 311 313 301 303 291 268 286 284 290 285 277 274 278 274 273 262 253 256 259 263 265 266 271 269 272 277
13 30 19 27 21 357 342 344 340 343 343 343 345 342 335 331 332 323 313 320 321 323 325 310 299 298 290 285 285 268 267 272 275 274 262 253 256 261 257 257 264 263 261 263
Wind_Speed_850mb
14 22 3 13 12 8 11 7 6 9 17 16 16 12 29 17 8 6 17 22 28 24 23 24 27 29 32 34 36 45 48 44 42 47 45 51 59 47 34 26 23 25 39 47
13 25 19 9 11 6 9 14 8 23 16 14 25 28 20 12 8 15 19 23 22 28 29 32 28 27 29 32 38 38 42 44 35 46 47 55 53 46 40 20 21 24 21 27
9 14 16 8 9 27 6 14 9 5 13 22 13 16 10 1 14 15 20 22 25 29 36 32 25 23 27 32 41 46 40 35 37 44 55 57 48 39 32 13 19 20 20 19
9 10 8 5 6 15 16 24 12 13 16 24 22 12 8 21 21 24 22 23 27 29 32 30 29 34 37 47 45 45 39 34 41 49 50 51 42 35 27 31 17 19 21 19
5 4 11 14 10 12 15 8 19 15 17 28 21 28 28 25 23 22 20 22 26 29 26 30 35 39 48 47 39 39 45 43 41 41 42 50 41 38 29 31 20 19 23 25
5 3 3 7 5 20 19 4 18 24 21 23 16 9 2 16 18 20 21 22 24 25 28 29 37 43 37 36 39 44 45 44 42 38 40 41 45 37 31 24 18 19 17 22
2 1 10 10 28 10 2 7 16 15 16 20 12 12 20 18 22 19 19 21 27 22 20 26 35 40 38 38 48 39 41 41 43 36 36 38 38 37 35 23 17 22 14 16
4 12 3 9 10 3 8 6 8 12 25 24 18 22 21 23 21 20 21 27 23 19 26 36 40 43 43 42 40 45 38 38 36 34 38 35 35 35 36 25 16 18 13 22
12 6 22 22 25 13 7 10 14 19 12 10 14 16 19 19 17 15 18 19 21 25 34 39 42 41 51 34 36 44 42 40 40 37 40 35 32 37 27 21 25 18 13 1
6 7 24 27 19 15 11 16 14 6 14 13 14 12 13 13 11 14 16 17 22 31 35 41 36 41 52 41 40 40 40 37 35 39 37 28 22 32 20 26 20 20 11 10
8 9 8 24 15 17 12 4 5 24 20 18 15 15 14 12 13 14 19 15 22 28 36 40 38 42 44 42 46 44 41 35 34 39 40 36 23 27 19 17 16 18 21 14
2 19 12 12 9 11 10 21 14 13 17 16 14 13 14 13 15 19 19 12 22 30 37 43 36 35 37 42 42 38 42 41 28 34 43 29 31 29 14 12 20 11 25 12
16 23 23 16 19 20 17 15 15 12 15 15 12 10 11 15 18 19 13 21 28 28 38 38 35 34 41 40 40 29 37 41 25 32 34 30 29 27 23 9 14 20 18 28
15 12 11 8 15 10 12 11 14 13 16 7 7 13 18 20 20 15 24 25 26 31 29 33 36 38 42 40 33 26 37 33 35 19 28 28 22 18 22 20 11 21 18 16
10 8 7 5 3 8 4 8 12 16 6 5 10 14 20 18 21 26 26 29 25 29 29 40 37 36 37 34 27 29 31 29 28 28 25 23 28 21 16 6 13 15 27 9
6 7 4 4 7 11 4 6 14 4 12 20 28 24 21 25 26 25 28 29 24 30 39 40 37 31 32 27 28 30 17 25 24 28 22 20 33 18 21 9 9 7 10 19
20 23 20 17 17 12 11 12 6 10 16 24 26 25 27 25 24 25 26 29 34 35 36 35 36 33 35 20 21 23 20 22 26 18 20 26 25 21 17 17 13 10 14 14
11 7 8 10 11 14 16 12 10 17 23 25 25 30 29 26 31 31 33 30 29 36 37 40 34 32 30 25 27 29 17 17 22 19 22 26 28 15 14 13 16 18 18 16
12 12 13 15 16 18 20 19 18 19 23 28 25 27 33 33 34 33 33 34 40 43 37 39 42 35 32 28 24 27 13 19 29 20 14 21 22 18 16 15 15 15 14 18
22 19 18 22 21 20 23 28 22 26 23 24 30 31 33 35 36 41 36 40 42 43 30 36 39 36 33 32 24 27 19 24 24 16 17 19 22 23 22 18 16 21 25 16
38 37 34 30 26 17 25 28 37 32 30 32 30 34 40 40 40 39 48 45 44 43 35 38 39 36 36 34 33 35 23 27 23 18 20 18 21 22 28 20 17 20 24 27
28 22 19 24 28 30 28 28 31 37 32 30 33 36 39 43 43 51 53 44 41 40 35 39 42 33 35 39 39 40 34 30 27 22 19 22 23 28 27 32 25 20 21 26
23 30 34 39 37 36 27 31 46 24 33 37 46 42 42 46 49 47 57 55 53 53 48 45 46 45 42 38 34 34 35 29 31 35 33 31 26 25 26 18 19 25 25 25
37 38 43 42 36 21 42 40 33 29 37 41 51 50 53 54 59 55 63 60 55 57 56 53 51 53 47 50 46 43 43 37 33 32 38 40 38 35 34 30 26 24 26 27
25 34 24 23 27 30 25 22 25 39 39 38 33 36 35 35 44 54 56 56 50 52 63 61 60 55 54 58 65 59 54 45 29 29 34 44 38 39 45 45 38 36 30 21
30 23 17 24 29 20 28 24 36 38 47 48 50 52 36 43 50 50 52 57 51 60 60 66 72 63 66 65 65 75 64 55 49 41 41 50 49 45 47 45 42 43 40 37
25 27 28 29 27 32 32 30 31 32 42 53 53 46 47 50 48 46 54 51 55 41 43 52 58 61 53 62 76 68 74 70 62 64 60 59 57 54 48 50 52 51 48 46
Wind_Direction_850mb
324 324 6 318 306 40 65 353 93 94 131 167 176 173 126 127 102 51 46 17 354 349 5 348 337 334 331 330 327 331 336 339 334 335 325 338 338 339 315 286 280 277 241 237
310 291 264 232 291 223 171 224 151 116 112 144 108 83 87 93 68 64 34 355 24 32 21 9 350 346 346 339 334 331 326 327 331 344 340 343 344 336 331 267 266 280 252 244
282 334 329 291 349 13 109 66 80 109 163 115 92 90 75 156 99 53 41 44 26 15 9 5 359 347 347 338 332 338 339 348 343 336 338 335 341 342 342 328 302 271 255 246
257 347 285 201 339 35 353 21 3 96 106 117 115 101 100 91 69 68 46 25 11 359 354 342 340 342 341 341 342 338 336 349 350 340 340 342 338 339 342 324 312 288 261 249
41 320 285 123 19 115 225 3 11 76 76 96 94 98 59 45 69 56 37 16 3 355 342 333 340 345 339 344 337 341 347 341 339 340 339 344 340 348 337 334 306 294 236 243
348 298 301 331 258 240 324 192 45 51 56 85 67 82 307 54 41 33 23 10 5 356 339 333 339 341 347 344 338 339 341 344 346 332 336 344 343 343 340 334 322 308 265 227
117 201 273 246 250 330 29 236 53 50 82 78 85 97 83 59 50 37 26 10 1 344 352 2 351 347 352 348 345 349 342 338 342 343 348 344 344 352 353 347 324 341 233 266
73 243 161 0 50 322 166 101 58 75 88 71 56 62 48 34 23 13 10 2 3 344 357 349 352 346 344 342 346 345 350 346 340 353 353 349 341 347 1 18 8 328 327 244
201 208 101 88 114 114 114 97 96 87 63 80 79 46 27 23 9 8 10 11 352 348 348 354 348 345 346 352 351 353 354 1 357 356 355 343 338 343 342 357 12 12 358 262
71 162 126 130 131 127 83 107 95 54 118 72 58 35 25 7 358 2 14 359 347 349 358 358 343 339 350 356 344 338 341 346 355 354 346 359 353 349 332 350 2 5 350 349
127 85 163 148 142 144 142 128 46 89 76 61 44 33 14 4 352 349 349 344 336 343 351 353 349 338 343 346 345 346 343 344 343 357 354 351 347 359 354 337 337 1 8 358
32 17 77 87 111 120 85 94 77 62 46 31 14 5 349 329 331 333 351 323 332 334 342 343 347 337 343 346 340 340 350 351 350 354 351 355 1 5 357 358 356 17 25 29
51 58 57 78 83 65 73 70 63 29 351 334 347 323 333 314 322 324 338 320 322 322 326 340 347 338 341 345 343 345 344 350 350 350 351 3 350 4 18 46 16 33 35 35
46 39 55 67 101 87 73 46 9 351 320 271 328 311 322 311 311 299 318 319 324 313 324 346 339 337 332 333 334 333 347 351 359 357 4 0 345 360 15 16 353 24 355 13
46 32 9 89 146 176 160 330 296 299 351 351 321 315 318 310 313 314 316 319 318 319 325 327 324 327 330 328 323 332 347 355 10 9 359 352 351 311 318 328 18 13 25 24
331 267 302 226 269 221 220 308 287 41 352 328 312 308 292 304 310 312 311 310 312 313 317 314 317 324 319 324 324 342 345 338 353 347 349 349 342 353 346 343 299 317 18 2
358 353 346 346 350 333 267 295 145 350 335 322 309 291 307 318 313 312 311 309 310 311 318 312 301 322 319 347 356 356 346 337 345 352 348 356 1 358 353 351 345 354 317 305
282 304 2 340 315 303 305 306 297 305 304 310 299 300 306 301 308 318 316 312 308 312 313 307 306 325 340 334 329 334 332 334 327 343 333 347 0 357 350 348 331 322 318 321
289 280 282 278 283 274 273 268 284 296 303 310 303 297 300 303 303 310 312 309 307 308 304 305 309 319 327 323 323 333 325 302 314 313 306 316 325 355 354 353 345 336 314 320
349 326 319 298 291 281 291 285 268 283 286 298 305 301 297 304 301 305 309 298 305 309 302 296 302 312 318 296 300 340 337 333 325 326 317 292 296 302 309 333 324 320 326 332
346 337 343 349 346 344 310 292 284 293 287 294 296 298 295 299 300 294 310 297 299 299 296 296 298 309 300 289 296 312 298 300 325 325 312 302 279 290 292 316 316 326 310 311
327 329 330 333 340 330 327 320 306 303 281 288 298 302 298 296 296 301 311 301 299 297 289 285 295 292 289 297 300 303 308 272 293 302 295 294 302 307 298 282 282 302 298 304
344 335 331 321 324 307 319 315 321 308 311 302 303 299 302 296 294 293 308 302 301 291 283 285 286 289 295 301 301 295 295 280 272 279 282 274 288 279 283 286 272 285 280 275
328 327 326 324 306 300 337 345 317 295 282 307 294 297 289 294 296 293 291 308 285 286 287 289 281 280 290 300 297 289 285 292 260 259 273 273 268 266 275 288 277 279 295 272
338 333 338 331 320 329 339 347 340 332 314 310 323 309 297 298 315 315 308 301 301 279 287 281 294 290 287 291 290 284 279 278 273 256 264 269 259 265 264 281 278 277 287 280
319 289 322 349 341 349 344 336 343 348 340 332 324 316 292 311 300 309 311 313 301 303 291 268 286 284 290 285 277 274 278 274 273 262 253 256 259 263 265 266 271 269 272 277
13 30 19 27 21 357 342 344 340 343 343 343 345 342 335 331 332 323 313 320 321 323 325 310 299 298 290 285 285 268 267 272 275 274 262 253 256 261 257 257 264 263 261 263